{"data":{"norad_id":48445,"epoch":"2026-09-19T06:28:53.328288Z","epoch_age_seconds":143448,"freshness":"FRESH","line1":"1 48445U 21040T   26262.27006167  .00000578  00000+0  30392-4 0  9999","line2":"2 48445  53.1616 357.2298 0000934  74.6532 285.4572 15.31706004296342","mean_motion":15.31706004,"eccentricity":9.34e-5,"inclination_deg":53.1616,"raan_deg":357.2298,"arg_perigee_deg":74.6532,"mean_anomaly_deg":285.4572,"bstar":3.0392e-5,"rev_number":29634,"period_min":94.012819447041,"perigee_km":470.08241423281,"apogee_km":471.36178111225,"semimajor_km":6848.8590976725,"source":"CELESTRAK","updated_at":"2026-09-20T09:00:39.126213Z"}}